CMP390 MPTO-MGGT

Flight info

Callsign CMP390
Flight time 1h 54m
Altitude 34000
Route AROVI ANSON MUTAL AUR
Aircraft B738/M-SDE3FGHIRWY/S

Departure

Time 2026-04-30 02:24
Airport Tocumen International Airport (MPTO)

Arrival

Time 2026-04-30 04:19
Airport La Aurora International Airport (MGGT)
Time Latitude Longitude Altitude Speed Heading
2026-04-30 01:51 9.06447 -79.38739 29 ft 0 kts 32°
2026-04-30 02:13 9.06443 -79.38742 29 ft 2 kts 36°
2026-04-30 02:14 9.06430 -79.38755 29 ft 3 kts 66°
2026-04-30 02:14 9.06426 -79.38773 29 ft 3 kts 99°
2026-04-30 02:14 9.06432 -79.38791 29 ft 3 kts 127°
2026-04-30 02:14 9.06437 -79.38798 29 ft 0 kts 136°
2026-04-30 02:18 9.06437 -79.38797 29 ft 1 kts 136°
2026-04-30 02:18 9.06426 -79.38786 29 ft 4 kts 136°
2026-04-30 02:18 9.06394 -79.38757 29 ft 8 kts 137°
2026-04-30 02:19 9.06352 -79.38701 29 ft 12 kts 122°
2026-04-30 02:19 9.06350 -79.38623 29 ft 14 kts 30°
2026-04-30 02:19 9.06442 -79.38573 29 ft 17 kts 28°
2026-04-30 02:19 9.06553 -79.38515 29 ft 19 kts 27°
2026-04-30 02:20 9.06636 -79.38471 29 ft 21 kts 27°
2026-04-30 02:20 9.06768 -79.38402 29 ft 21 kts 26°
2026-04-30 02:20 9.06891 -79.38407 29 ft 18 kts 303°
2026-04-30 02:20 9.06967 -79.38456 29 ft 12 kts 14°
2026-04-30 02:21 9.07045 -79.38417 29 ft 13 kts 27°
2026-04-30 02:21 9.07134 -79.38395 30 ft 14 kts 328°
2026-04-30 02:21 9.07194 -79.38480 30 ft 15 kts 301°
2026-04-30 02:21 9.07248 -79.38574 33 ft 15 kts 292°
2026-04-30 02:22 9.07269 -79.38652 40 ft 1 kts 288°
2026-04-30 02:22 9.07270 -79.38652 40 ft 0 kts 288°
2026-04-30 02:22 9.07270 -79.38653 40 ft 0 kts 288°
2026-04-30 02:23 9.07272 -79.38658 41 ft 2 kts 288°
2026-04-30 02:23 9.07284 -79.38684 42 ft 8 kts 304°
2026-04-30 02:23 9.07371 -79.38676 46 ft 24 kts 31°
2026-04-30 02:23 9.07724 -79.38465 49 ft 95 kts 30°
2026-04-30 02:24 9.08478 -79.38010 45 ft 156 kts 29°
2026-04-30 02:24 9.09545 -79.37392 266 ft 188 kts 28°
2026-04-30 02:24 9.10658 -79.36725 1122 ft 182 kts 28°
2026-04-30 02:24 9.11723 -79.36071 2074 ft 178 kts 30°
2026-04-30 02:25 9.12863 -79.35377 2519 ft 205 kts 30°
2026-04-30 02:25 9.14169 -79.34593 2772 ft 228 kts 30°
2026-04-30 02:25 9.15563 -79.33758 3218 ft 243 kts 30°
2026-04-30 02:25 9.17084 -79.32844 3596 ft 262 kts 30°
2026-04-30 02:26 9.18653 -79.31901 4483 ft 264 kts 31°
2026-04-30 02:26 9.20237 -79.30950 5364 ft 264 kts 30°
2026-04-30 02:26 9.21966 -79.30306 6182 ft 271 kts
2026-04-30 02:26 9.23844 -79.30518 6959 ft 277 kts 341°
2026-04-30 02:27 9.25478 -79.31559 7716 ft 284 kts 315°
2026-04-30 02:27 9.26513 -79.33270 8472 ft 291 kts 289°
2026-04-30 02:27 9.26844 -79.35299 9243 ft 296 kts 272°
2026-04-30 02:27 9.26882 -79.37392 10027 ft 298 kts 270°
2026-04-30 02:28 9.26887 -79.39498 10765 ft 301 kts 270°
2026-04-30 02:28 9.26897 -79.41631 11484 ft 304 kts 270°
2026-04-30 02:28 9.26919 -79.43783 12205 ft 308 kts 270°
2026-04-30 02:28 9.26951 -79.45963 12917 ft 311 kts 270°
2026-04-30 02:29 9.26990 -79.48166 13627 ft 315 kts 270°
2026-04-30 02:29 9.27034 -79.50396 14248 ft 318 kts 270°
2026-04-30 02:29 9.27079 -79.52644 14882 ft 322 kts 271°
2026-04-30 02:29 9.27151 -79.54919 15520 ft 325 kts 276°
2026-04-30 02:30 9.27626 -79.57196 15929 ft 337 kts 285°
2026-04-30 02:30 9.28306 -79.59493 16443 ft 343 kts 287°
2026-04-30 02:30 9.29020 -79.61805 17071 ft 346 kts 287°
2026-04-30 02:30 9.29735 -79.64140 17720 ft 348 kts 287°
2026-04-30 02:31 9.30441 -79.66497 18301 ft 351 kts 286°
2026-04-30 02:31 9.31141 -79.68875 18856 ft 353 kts 286°
2026-04-30 02:31 9.31833 -79.71253 19462 ft 353 kts 285°
2026-04-30 02:31 9.32522 -79.73640 20078 ft 353 kts 285°
2026-04-30 02:32 9.33211 -79.76032 20628 ft 355 kts 285°
2026-04-30 02:32 9.33905 -79.78443 21145 ft 358 kts 285°
2026-04-30 02:32 9.34602 -79.80862 21705 ft 359 kts 285°
2026-04-30 02:32 9.35304 -79.83300 22258 ft 361 kts 285°
2026-04-30 02:33 9.36007 -79.85746 22752 ft 364 kts 285°
2026-04-30 02:33 9.36693 -79.88236 23174 ft 369 kts 283°
2026-04-30 02:33 9.37308 -79.90769 23623 ft 371 kts 282°
2026-04-30 02:33 9.37895 -79.93317 24061 ft 373 kts 281°
2026-04-30 02:34 9.38482 -79.95880 24467 ft 375 kts 281°
2026-04-30 02:34 9.39074 -79.98461 24861 ft 378 kts 281°
2026-04-30 02:34 9.39677 -80.01063 25243 ft 381 kts 281°
2026-04-30 02:34 9.40287 -80.03683 25632 ft 384 kts 281°
2026-04-30 02:35 9.40903 -80.06314 26021 ft 386 kts 281°
2026-04-30 02:35 9.41527 -80.08968 26407 ft 389 kts 281°
2026-04-30 02:35 9.42156 -80.11645 26782 ft 391 kts 281°
2026-04-30 02:35 9.42788 -80.14329 27178 ft 393 kts 281°
2026-04-30 02:36 9.43423 -80.17030 27567 ft 395 kts 280°
2026-04-30 02:36 9.44062 -80.19747 27919 ft 398 kts 280°
2026-04-30 02:36 9.44705 -80.22482 28272 ft 401 kts 280°
2026-04-30 02:36 9.45353 -80.25237 28625 ft 403 kts 280°
2026-04-30 02:37 9.46004 -80.28010 28977 ft 406 kts 280°
2026-04-30 02:37 9.46659 -80.30799 29331 ft 408 kts 280°
2026-04-30 02:37 9.47316 -80.33597 29680 ft 410 kts 279°
2026-04-30 02:37 9.47978 -80.36419 30006 ft 413 kts 279°
2026-04-30 02:38 9.48643 -80.39254 30295 ft 414 kts 279°
2026-04-30 02:38 9.49310 -80.42095 30629 ft 415 kts 279°
2026-04-30 02:38 9.49978 -80.44945 30916 ft 417 kts 279°
2026-04-30 02:38 9.50650 -80.47813 31178 ft 419 kts 279°
2026-04-30 02:39 9.51323 -80.50686 31467 ft 421 kts 279°
2026-04-30 02:39 9.52000 -80.53578 31746 ft 423 kts 279°
2026-04-30 02:39 9.52679 -80.56479 32025 ft 424 kts 279°
2026-04-30 02:39 9.53360 -80.59392 32300 ft 425 kts 278°
2026-04-30 02:40 9.54043 -80.62313 32563 ft 427 kts 278°
2026-04-30 02:40 9.54729 -80.65246 32813 ft 429 kts 278°
2026-04-30 02:40 9.55416 -80.68189 33059 ft 431 kts 278°
2026-04-30 02:40 9.56108 -80.71148 33309 ft 432 kts 278°
2026-04-30 02:41 9.56801 -80.74115 33555 ft 433 kts 278°
2026-04-30 02:41 9.57495 -80.77090 33783 ft 435 kts 278°
2026-04-30 02:41 9.58193 -80.80080 33993 ft 437 kts 278°
2026-04-30 02:41 9.58966 -80.83069 34200 ft 441 kts 283°
2026-04-30 02:42 9.60135 -80.85965 34423 ft 448 kts 292°
2026-04-30 02:42 9.61732 -80.88694 34657 ft 451 kts 297°
2026-04-30 02:42 9.63427 -80.91372 34881 ft 452 kts 298°
2026-04-30 02:42 9.65148 -80.94049 35085 ft 453 kts 298°
2026-04-30 02:43 9.66866 -80.96723 35284 ft 454 kts 298°
2026-04-30 02:43 9.68605 -80.99448 35484 ft 454 kts 298°
2026-04-30 02:43 9.70312 -81.02142 35715 ft 454 kts 297°
2026-04-30 02:43 9.72007 -81.04833 36015 ft 451 kts 297°
2026-04-30 02:44 9.73682 -81.07501 36345 ft 448 kts 297°
2026-04-30 02:44 9.75346 -81.10157 36675 ft 445 kts 298°
2026-04-30 02:44 9.76998 -81.12799 36961 ft 443 kts 298°
2026-04-30 02:44 9.78645 -81.15434 37213 ft 441 kts 298°
2026-04-30 02:45 9.80284 -81.18058 37474 ft 440 kts 298°
2026-04-30 02:45 9.81917 -81.20671 37734 ft 438 kts 298°
2026-04-30 02:45 9.83542 -81.23272 37920 ft 437 kts 298°
2026-04-30 02:46 9.86806 -81.28500 37901 ft 438 kts 298°
2026-04-30 02:46 9.90032 -81.33663 37902 ft 435 kts 298°
2026-04-30 02:47 9.93274 -81.38855 37905 ft 432 kts 298°
2026-04-30 02:47 9.96478 -81.43990 37905 ft 430 kts 298°
2026-04-30 02:48 9.99666 -81.49103 37909 ft 429 kts 298°
2026-04-30 02:48 10.02850 -81.54211 37909 ft 428 kts 298°
2026-04-30 02:49 10.06031 -81.59328 37914 ft 429 kts 298°
2026-04-30 02:49 10.09223 -81.64446 37913 ft 430 kts 298°
2026-04-30 02:50 10.12428 -81.69590 37914 ft 432 kts 298°
2026-04-30 02:50 10.15641 -81.74751 37913 ft 433 kts 298°
2026-04-30 02:51 10.18863 -81.79932 37912 ft 434 kts 298°
2026-04-30 02:51 10.22094 -81.85127 37910 ft 435 kts 298°
2026-04-30 02:52 10.25322 -81.90330 37911 ft 436 kts 298°
2026-04-30 02:52 10.28560 -81.95538 37909 ft 436 kts 298°
2026-04-30 02:53 10.31797 -82.00748 37914 ft 436 kts 298°
2026-04-30 02:53 10.35024 -82.05945 37912 ft 435 kts 298°
2026-04-30 02:54 10.38247 -82.11141 37907 ft 434 kts 298°
2026-04-30 02:54 10.41461 -82.16324 37909 ft 433 kts 298°
2026-04-30 02:55 10.44666 -82.21495 37907 ft 432 kts 298°
2026-04-30 02:55 10.47861 -82.26653 37913 ft 431 kts 298°
2026-04-30 02:56 10.51045 -82.31798 37912 ft 430 kts 298°
2026-04-30 02:56 10.54225 -82.36937 37920 ft 429 kts 298°
2026-04-30 02:57 10.57399 -82.42071 37921 ft 428 kts 298°
2026-04-30 02:57 10.60032 -82.46329 37913 ft 428 kts 298°
2026-04-30 02:58 10.63200 -82.51452 37913 ft 428 kts 298°
2026-04-30 02:58 10.66370 -82.56586 37915 ft 428 kts 298°
2026-04-30 02:59 10.69537 -82.61714 37917 ft 428 kts 298°
2026-04-30 02:59 10.72537 -82.66934 37922 ft 427 kts 294°
2026-04-30 03:00 10.75319 -82.72303 37917 ft 427 kts 294°
2026-04-30 03:00 10.78067 -82.77655 37914 ft 427 kts 294°
2026-04-30 03:01 10.80836 -82.83006 37918 ft 427 kts 294°
2026-04-30 03:01 10.83617 -82.88351 37922 ft 428 kts 294°
2026-04-30 03:02 10.86401 -82.93695 37921 ft 428 kts 294°
2026-04-30 03:02 10.89189 -82.99047 37921 ft 428 kts 294°
2026-04-30 03:03 10.91976 -83.04403 37914 ft 428 kts 294°
2026-04-30 03:03 10.96153 -83.12433 37916 ft 428 kts 294°
2026-04-30 03:04 10.98936 -83.17788 37914 ft 428 kts 294°
2026-04-30 03:04 11.01716 -83.23138 37921 ft 428 kts 294°
2026-04-30 03:05 11.04495 -83.28492 37912 ft 428 kts 294°
2026-04-30 03:05 11.07274 -83.33847 37919 ft 427 kts 294°
2026-04-30 03:06 11.10046 -83.39192 37923 ft 427 kts 294°
2026-04-30 03:06 11.12822 -83.44547 37913 ft 427 kts 294°
2026-04-30 03:07 11.15594 -83.49898 37918 ft 427 kts 294°
2026-04-30 03:07 11.18363 -83.55245 37927 ft 427 kts 294°
2026-04-30 03:08 11.21134 -83.60598 37915 ft 427 kts 294°
2026-04-30 03:08 11.23902 -83.65950 37916 ft 427 kts 294°
2026-04-30 03:09 11.26669 -83.71303 37926 ft 427 kts 294°
2026-04-30 03:09 11.29439 -83.76663 37924 ft 427 kts 294°
2026-04-30 03:10 11.32206 -83.82021 37926 ft 428 kts 294°
2026-04-30 03:10 11.34975 -83.87388 37923 ft 428 kts 294°
2026-04-30 03:11 11.37742 -83.92755 37925 ft 428 kts 294°
2026-04-30 03:11 11.40506 -83.98124 37926 ft 428 kts 294°
2026-04-30 03:12 11.43276 -84.03495 37919 ft 428 kts 294°
2026-04-30 03:12 11.46051 -84.08877 37921 ft 429 kts 294°
2026-04-30 03:13 11.48823 -84.14259 37937 ft 429 kts 294°
2026-04-30 03:13 11.51597 -84.19651 37939 ft 429 kts 294°
2026-04-30 03:14 11.54366 -84.25046 37938 ft 430 kts 294°
2026-04-30 03:14 11.57141 -84.30447 37928 ft 430 kts 294°
2026-04-30 03:15 11.59918 -84.35848 37925 ft 430 kts 294°
2026-04-30 03:15 11.62692 -84.41249 37919 ft 430 kts 294°
2026-04-30 03:16 11.65467 -84.46655 37924 ft 430 kts 294°
2026-04-30 03:16 11.68240 -84.52064 37917 ft 430 kts 294°
2026-04-30 03:17 11.71006 -84.57462 37912 ft 430 kts 294°
2026-04-30 03:17 11.73775 -84.62867 37915 ft 430 kts 294°
2026-04-30 03:18 11.76541 -84.68271 37921 ft 429 kts 294°
2026-04-30 03:18 11.79304 -84.73672 37910 ft 429 kts 294°
2026-04-30 03:19 11.82065 -84.79075 37901 ft 429 kts 294°
2026-04-30 03:19 11.84841 -84.84508 37903 ft 429 kts 294°
2026-04-30 03:20 11.87603 -84.89915 37915 ft 429 kts 294°
2026-04-30 03:20 11.90367 -84.95329 37916 ft 430 kts 295°
2026-04-30 03:21 11.93131 -85.00748 37906 ft 430 kts 294°
2026-04-30 03:21 11.95897 -85.06172 37913 ft 431 kts 295°
2026-04-30 03:22 11.98662 -85.11603 37900 ft 432 kts 295°
2026-04-30 03:22 12.01435 -85.17047 37901 ft 432 kts 295°
2026-04-30 03:23 12.04210 -85.22499 37917 ft 433 kts 295°
2026-04-30 03:23 12.06983 -85.27951 37906 ft 433 kts 295°
2026-04-30 03:24 12.09756 -85.33410 37890 ft 433 kts 295°
2026-04-30 03:24 12.12528 -85.38867 37891 ft 433 kts 295°
2026-04-30 03:25 12.15301 -85.44324 37893 ft 432 kts 295°
2026-04-30 03:25 12.18070 -85.49780 37898 ft 432 kts 295°
2026-04-30 03:26 12.20837 -85.55239 37906 ft 432 kts 295°
2026-04-30 03:26 12.23595 -85.60680 37891 ft 432 kts 295°
2026-04-30 03:27 12.26357 -85.66136 37887 ft 432 kts 295°
2026-04-30 03:27 12.29115 -85.71584 37874 ft 431 kts 295°
2026-04-30 03:28 12.31863 -85.77015 37886 ft 430 kts 295°
2026-04-30 03:28 12.34610 -85.82444 37897 ft 430 kts 295°
2026-04-30 03:29 12.37355 -85.87878 37886 ft 430 kts 295°
2026-04-30 03:29 12.40100 -85.93312 37879 ft 430 kts 295°
2026-04-30 03:30 12.42845 -85.98753 37879 ft 431 kts 295°
2026-04-30 03:30 12.45595 -86.04205 37881 ft 431 kts 295°
2026-04-30 03:31 12.48341 -86.09652 37882 ft 431 kts 295°
2026-04-30 03:31 12.51094 -86.15116 37877 ft 432 kts 295°
2026-04-30 03:32 12.53847 -86.20585 37878 ft 432 kts 295°
2026-04-30 03:32 12.56600 -86.26058 37888 ft 433 kts 295°
2026-04-30 03:33 12.59357 -86.31539 37886 ft 433 kts 295°
2026-04-30 03:33 12.62110 -86.37021 37891 ft 433 kts 295°
2026-04-30 03:34 12.64862 -86.42508 37895 ft 433 kts 295°
2026-04-30 03:34 12.67170 -86.47102 37897 ft 433 kts 295°
2026-04-30 03:35 12.69925 -86.52589 37899 ft 433 kts 295°
2026-04-30 03:35 12.72677 -86.58077 37906 ft 433 kts 295°
2026-04-30 03:36 12.75427 -86.63566 37903 ft 433 kts 295°
2026-04-30 03:36 12.78175 -86.69058 37907 ft 433 kts 295°
2026-04-30 03:37 12.80925 -86.74556 37908 ft 433 kts 295°
2026-04-30 03:37 12.83678 -86.80058 37909 ft 434 kts 295°
2026-04-30 03:38 12.86428 -86.85558 37914 ft 434 kts 295°
2026-04-30 03:38 12.89175 -86.91060 37915 ft 434 kts 295°
2026-04-30 03:39 12.91925 -86.96571 37922 ft 434 kts 295°
2026-04-30 03:39 12.94671 -87.02081 37926 ft 434 kts 295°
2026-04-30 03:40 12.97420 -87.07593 37921 ft 435 kts 295°
2026-04-30 03:40 13.00172 -87.13114 37934 ft 435 kts 296°
2026-04-30 03:41 13.02921 -87.18637 37932 ft 435 kts 296°
2026-04-30 03:41 13.05672 -87.24166 37927 ft 435 kts 296°
2026-04-30 03:42 13.08425 -87.29704 37925 ft 436 kts 296°
2026-04-30 03:42 13.11177 -87.35242 37924 ft 436 kts 296°
2026-04-30 03:43 13.13952 -87.40832 37920 ft 437 kts 296°
2026-04-30 03:43 13.16714 -87.46398 37922 ft 438 kts 296°
2026-04-30 03:44 13.19479 -87.51974 37919 ft 439 kts 296°
2026-04-30 03:44 13.22248 -87.57561 37914 ft 440 kts 296°
2026-04-30 03:45 13.25020 -87.63159 37914 ft 441 kts 296°
2026-04-30 03:45 13.27800 -87.68777 37913 ft 442 kts 296°
2026-04-30 03:46 13.30584 -87.74406 37911 ft 443 kts 297°
2026-04-30 03:46 13.33371 -87.80046 37906 ft 444 kts 297°
2026-04-30 03:47 13.36166 -87.85705 37902 ft 445 kts 297°
2026-04-30 03:47 13.38965 -87.91377 37896 ft 445 kts 297°
2026-04-30 03:48 13.41765 -87.97054 37891 ft 446 kts 297°
2026-04-30 03:48 13.44570 -88.02746 37893 ft 447 kts 297°
2026-04-30 03:49 13.47374 -88.08440 37896 ft 447 kts 297°
2026-04-30 03:49 13.50177 -88.14136 37897 ft 447 kts 297°
2026-04-30 03:50 13.52981 -88.19836 37892 ft 447 kts 297°
2026-04-30 03:50 13.55780 -88.25533 37899 ft 446 kts 297°
2026-04-30 03:51 13.58576 -88.31225 37899 ft 446 kts 297°
2026-04-30 03:51 13.61366 -88.36911 37897 ft 445 kts 297°
2026-04-30 03:52 13.64134 -88.42591 37898 ft 444 kts 295°
2026-04-30 03:52 13.66104 -88.48607 37824 ft 446 kts 287°
2026-04-30 03:53 13.66967 -88.51692 37370 ft 449 kts 286°
2026-04-30 03:53 13.67814 -88.54759 36979 ft 444 kts 286°
2026-04-30 03:53 13.68658 -88.57797 36569 ft 440 kts 286°
2026-04-30 03:53 13.69502 -88.60799 36181 ft 436 kts 286°
2026-04-30 03:54 13.70349 -88.63784 35788 ft 432 kts 286°
2026-04-30 03:54 13.71191 -88.66733 35379 ft 429 kts 286°
2026-04-30 03:54 13.72031 -88.69667 34992 ft 426 kts 286°
2026-04-30 03:54 13.72868 -88.72585 34595 ft 424 kts 286°
2026-04-30 03:55 13.73696 -88.75475 34190 ft 422 kts 286°
2026-04-30 03:55 13.74524 -88.78367 33779 ft 419 kts 286°
2026-04-30 03:55 13.75344 -88.81233 33339 ft 417 kts 286°
2026-04-30 03:55 13.76161 -88.84085 32931 ft 414 kts 286°
2026-04-30 03:56 13.76969 -88.86911 32542 ft 411 kts 286°
2026-04-30 03:56 13.77774 -88.89728 32149 ft 408 kts 286°
2026-04-30 03:56 13.78569 -88.92512 31782 ft 405 kts 286°
2026-04-30 03:56 13.79361 -88.95288 31398 ft 403 kts 286°
2026-04-30 03:57 13.80147 -88.98042 31025 ft 400 kts 286°
2026-04-30 03:57 13.80928 -89.00781 30655 ft 398 kts 286°
2026-04-30 03:57 13.81703 -89.03499 30297 ft 396 kts 286°
2026-04-30 03:57 13.82476 -89.06209 29921 ft 394 kts 286°
2026-04-30 03:58 13.83243 -89.08905 29492 ft 391 kts 287°
2026-04-30 03:58 13.84005 -89.11583 29080 ft 389 kts 287°
2026-04-30 03:58 13.84761 -89.14240 28690 ft 386 kts 287°
2026-04-30 03:58 13.85512 -89.16881 28301 ft 383 kts 287°
2026-04-30 03:59 13.86256 -89.19500 27923 ft 380 kts 288°
2026-04-30 03:59 13.86996 -89.22103 27552 ft 378 kts 288°
2026-04-30 03:59 13.87730 -89.24691 27182 ft 376 kts 288°
2026-04-30 03:59 13.88460 -89.27262 26818 ft 374 kts 289°
2026-04-30 04:00 13.89188 -89.29826 26450 ft 372 kts 289°
2026-04-30 04:00 13.89913 -89.32380 26085 ft 371 kts 289°
2026-04-30 04:00 13.90635 -89.34928 25701 ft 371 kts 290°
2026-04-30 04:00 13.91357 -89.37473 25267 ft 371 kts 290°
2026-04-30 04:01 13.92084 -89.40034 24788 ft 374 kts 289°
2026-04-30 04:01 13.92813 -89.42604 24443 ft 373 kts 289°
2026-04-30 04:01 13.93536 -89.45159 24056 ft 372 kts 289°
2026-04-30 04:01 13.94260 -89.47718 23690 ft 372 kts 289°
2026-04-30 04:02 13.94982 -89.50271 23280 ft 371 kts 289°
2026-04-30 04:02 13.95701 -89.52815 22877 ft 369 kts 289°
2026-04-30 04:02 13.96415 -89.55346 22503 ft 367 kts 289°
2026-04-30 04:02 13.97124 -89.57857 22131 ft 365 kts 290°
2026-04-30 04:03 13.97831 -89.60359 21760 ft 363 kts 290°
2026-04-30 04:03 13.98533 -89.62849 21405 ft 361 kts 290°
2026-04-30 04:03 13.99232 -89.65326 21049 ft 359 kts 290°
2026-04-30 04:03 13.99927 -89.67790 20688 ft 358 kts 290°
2026-04-30 04:04 14.00619 -89.70243 20322 ft 356 kts 290°
2026-04-30 04:04 14.01309 -89.72692 19951 ft 355 kts 290°
2026-04-30 04:04 14.01997 -89.75134 19590 ft 355 kts 290°
2026-04-30 04:04 14.02682 -89.77568 19233 ft 354 kts 290°
2026-04-30 04:05 14.03367 -89.80002 18878 ft 353 kts 290°
2026-04-30 04:05 14.04050 -89.82431 18520 ft 353 kts 290°
2026-04-30 04:05 14.04733 -89.84859 18145 ft 353 kts 290°
2026-04-30 04:05 14.05522 -89.87234 17717 ft 348 kts 301°
2026-04-30 04:06 14.06750 -89.89378 17201 ft 348 kts 307°
2026-04-30 04:06 14.08072 -89.91467 16805 ft 347 kts 308°
2026-04-30 04:06 14.09395 -89.93543 16439 ft 345 kts 308°
2026-04-30 04:06 14.10693 -89.95600 16070 ft 338 kts 307°
2026-04-30 04:07 14.11944 -89.97609 15740 ft 328 kts 307°
2026-04-30 04:07 14.13155 -89.99567 15441 ft 322 kts 307°
2026-04-30 04:07 14.14355 -90.01513 15114 ft 322 kts 307°
2026-04-30 04:08 14.16750 -90.05410 14458 ft 322 kts 306°
2026-04-30 04:08 14.17963 -90.07388 14131 ft 322 kts 306°
2026-04-30 04:08 14.19155 -90.09331 13786 ft 321 kts 306°
2026-04-30 04:08 14.20349 -90.11278 13427 ft 320 kts 305°
2026-04-30 04:09 14.21519 -90.13215 13097 ft 318 kts 304°
2026-04-30 04:09 14.22622 -90.15151 12769 ft 315 kts 302°
2026-04-30 04:09 14.23712 -90.17103 12434 ft 313 kts 302°
2026-04-30 04:09 14.24804 -90.19063 12118 ft 310 kts 302°
2026-04-30 04:10 14.25858 -90.20953 11813 ft 307 kts 302°
2026-04-30 04:10 14.26923 -90.22853 11513 ft 305 kts 302°
2026-04-30 04:10 14.27986 -90.24744 11213 ft 304 kts 302°
2026-04-30 04:10 14.29020 -90.26581 10915 ft 303 kts 302°
2026-04-30 04:11 14.30075 -90.28456 10645 ft 301 kts 302°
2026-04-30 04:11 14.30781 -90.29710 10459 ft 300 kts 301°
2026-04-30 04:11 14.31814 -90.31546 10345 ft 292 kts 301°
2026-04-30 04:11 14.33121 -90.33872 10248 ft 270 kts 301°
2026-04-30 04:12 14.33741 -90.34976 10152 ft 258 kts 301°
2026-04-30 04:12 14.34610 -90.36522 10029 ft 240 kts 301°
2026-04-30 04:12 14.35423 -90.37968 9913 ft 227 kts 301°
2026-04-30 04:12 14.36198 -90.39346 9828 ft 219 kts 302°
2026-04-30 04:13 14.36959 -90.40698 9660 ft 216 kts 302°
2026-04-30 04:13 14.37699 -90.42016 9444 ft 209 kts 302°
2026-04-30 04:13 14.38418 -90.43295 9218 ft 203 kts 302°
2026-04-30 04:13 14.39114 -90.44533 9038 ft 198 kts 302°
2026-04-30 04:14 14.39804 -90.45762 8841 ft 198 kts 302°
2026-04-30 04:14 14.40492 -90.46986 8635 ft 196 kts 302°
2026-04-30 04:14 14.41169 -90.48193 8425 ft 193 kts 302°
2026-04-30 04:14 14.41848 -90.49400 8249 ft 197 kts 302°
2026-04-30 04:15 14.42539 -90.50627 7937 ft 202 kts 302°
2026-04-30 04:15 14.43322 -90.51842 7563 ft 195 kts 310°
2026-04-30 04:15 14.44202 -90.52832 7362 ft 180 kts 320°
2026-04-30 04:15 14.45158 -90.53605 7222 ft 172 kts 329°
2026-04-30 04:16 14.46204 -90.54229 7012 ft 173 kts 336°
2026-04-30 04:16 14.47293 -90.54680 6825 ft 166 kts 345°
2026-04-30 04:16 14.48401 -90.54960 6647 ft 163 kts 352°
2026-04-30 04:16 14.49522 -90.55078 6444 ft 160 kts
2026-04-30 04:17 14.50634 -90.55037 6235 ft 160 kts
2026-04-30 04:17 14.51724 -90.54835 6023 ft 159 kts 14°
2026-04-30 04:17 14.52802 -90.54523 5796 ft 163 kts 18°
2026-04-30 04:17 14.53884 -90.54176 5590 ft 163 kts 17°
2026-04-30 04:18 14.54965 -90.53827 5365 ft 163 kts 17°
2026-04-30 04:18 14.56039 -90.53480 5133 ft 161 kts 17°
2026-04-30 04:18 14.57110 -90.53141 4933 ft 160 kts 16°
2026-04-30 04:18 14.58167 -90.52801 4921 ft 160 kts 17°
2026-04-30 04:19 14.59068 -90.52510 4946 ft 105 kts 18°
2026-04-30 04:19 14.59480 -90.52377 4954 ft 35 kts 17°
2026-04-30 04:19 14.59573 -90.52395 4959 ft 10 kts 253°
2026-04-30 04:19 14.59525 -90.52430 4959 ft 8 kts 202°
2026-04-30 04:20 14.59471 -90.52450 4956 ft 8 kts 197°
2026-04-30 04:20 14.59412 -90.52468 4955 ft 10 kts 197°
2026-04-30 04:20 14.59340 -90.52491 4953 ft 12 kts 198°
2026-04-30 04:20 14.59252 -90.52521 4949 ft 14 kts 198°
2026-04-30 04:21 14.59153 -90.52553 4947 ft 15 kts 197°
2026-04-30 04:21 14.59045 -90.52587 4942 ft 18 kts 198°
2026-04-30 04:21 14.58917 -90.52629 4937 ft 21 kts 198°
2026-04-30 04:21 14.58807 -90.52665 4933 ft 12 kts 200°
2026-04-30 04:22 14.58796 -90.52734 4933 ft 10 kts 303°
2026-04-30 04:22 14.58848 -90.52777 4934 ft 9 kts 338°
2026-04-30 04:22 14.58912 -90.52777 4934 ft 9 kts 14°
2026-04-30 04:22 14.58957 -90.52799 4933 ft 8 kts 280°
2026-04-30 04:23 14.58967 -90.52845 4934 ft 3 kts 287°
2026-04-30 04:23 14.58971 -90.52859 4934 ft 1 kts 287°
2026-04-30 04:23 14.58973 -90.52863 4934 ft 0 kts 287°